EHI
0 0 0 0 0 0 0 0 0 0 0 0 0 0 0 0 0 0 0 0 0 0 0 0 0 0 0 0 0 0 0 0 0 0 0 0 0 0 0 0 0 0 0
0 0 0 0 0 0 0 0 0 0 0 0 0 0 0 0 0 0 0 0 0 0 0 0 0 0 0 0 0 0 0 0 0 0 0 0 0 0 0 0 0 0 0
0 0 0 0 0 0 0 0 0 0 0 0 0 0 0 0 0 0 0 0 0 0 0 0 0 0 0 0 0 0 0 0 0 0 0 0 0 0 0 0 0 0 0
0 0 0 0 0 0 0 0 0 0 0 0 0 0 0 0 0 0 0 0 0 0 0 0 0 0 0 0 0 0 0 0 0 0 0 0 0 0 0 0 0 0 0
0 0 0 0 0 0 0 0 0 0 0 0 0 0 0 0 0 0 0 0 0 0 0 0 0 0 0 0 0 0 0 0 0 0 0 0 0 0 0 0 0 0 0
0 0 0 0 0 0 0 0 0 0 0 0 0 0 0 0 0 0 0 0 0 0 0 0 0 0 0 0 0 0 0 0 0 0 0 0 0 0 0 0 0 0 0
0 0 0 0 0 0 0 0 0 0 0 0 0 0 0 0 0 0 0 0 0 0 0 0 0 0 0 0 0 0 0 0 0 0 0 0 0 0 0 0 0 0 0
0 0 0 0 0 0 0 0 0 0 0 0 0 0 0 0 0 0 0 0 0 0 0 0 0 0 0 0 0 0 0 0 0 0 0 0 0 0 0 0 0 0 0
0 0 0 0 0 0 0 0 0 0 0 0 0 0 0 0 0 0 0 0 0 0 0 0 0 0 0 0 0 0 0 0 0 0 0 0 0 0 0 0 0 0 0
0 0 0 0 0 0 0 0 0 0 0 0 0 0 0 0 0 0 0 0 0 0 0 0 0 0 0 0 0 0 0 0 0 0 0 0 0 0 0 0 0 0 0
0 0 0 0 0 0 0 0 0 0 0 0 0 0 0 0 0 0 0 0 0 0 0 0 0 0 0 0 0 0 0 0 0 0 0 0 0 0 0 0 0 0 0
0 0 0 0 0 0 0 0 0 0 0 0 0 0 0 0 0 0 0 0 0 0 0 0 0 0 0 0 0 0 0 0 0 0 0 0 0 0 0 0 0 0 0
0 0 0 0 0 0 0 0 0 0 0 0 0 0 0 0 0 0 0 0 0 0 0 0 0 0 0 0 0 0 0 0 0 0 0 0 0 0 0 0 0 0 0
0 0 0 0 0 0 0 0 0 0 0 0 0 0 0 0 0 0 0 0 0 0 0 0 0 0 0 0 0 0 0 0 0 0 0 0 0 0 0 0 0 0 0
0 0 0 0 0 0 0 0 0 0 0 0 0 0 0 0 0 0 0 0 0 0 0 0 0 0 0 0 0 0 0 0 0 0 0 0 0 0 0 0 0 0 0
0 0 0 0 0 0 0 0 0 0 0 0 0 0 0 0 0 0 0 0 0 0 0 0 0 0 0 0 0 0 0 0 0 0 0 0 0 0 0 0 0 0 0
0 0 0 0 0 0 0 0 0 0 0 0 0 0 0 0 0 0 0 0 0 0 0 0 0 0 0 0 0 0 0 0 0 0 0 0 0 0 0 0 0 0 0
0 0 0 0 0 0 0 0 0 0 0 0 0 0 0 0 0 0 0 0 0 0 0 0 0 0 0 0 0 0 0 0 0 0 0 0 0 0 0 0 0 0 0
0 0 0 0 0 0 0 0 0 0 0 0 0 0 0 0 0 0 0 0 0 0 0 0 0 0 0 0 0 0 0 0 0 0 0 0 0 0 0 0 0 0 0
0 0 0 0 0 0 0 0 0 0 0 0 0 0 0 0 0 0 0 0 0 0 0 0 0 0 0 0 0 0 0 0 0 0 0 0 0 0 0 0 0 0 0
0 0 0 0 0 0 0 0 0 0 0 0 0 0 0 0 0 0 0 0 0 0 0 0 0 0 0 0 0 0 0 0 0 0 0 0 0 0 0 0 0 0 0
0 0 0 0 0 0 0 0 0 0 0 0 0 0 0 0 0 0 0 0 0 0 0 0 0 0 0 0 0 0 0 0 0 0 0 0 0 0 0 0 0 0 0
0 0 0 0 0 0 0 0 0 0 0 0 0 0 0 0 0 0 0 0 0 0 0 0 0 0 0 0 0 0 0 0 0 0 0 0 0 0 0 0 0 0 0
0 0 0 0 0 0 0 0 0 0 0 0 0 0 0 0 0 0 0 0 0 0 0 0 0 0 0 0 0 0 0 0 0 0 0 0 0 0 0 0 0 0 0
0 0 0 0 0 0 0 0 0 0 0 0 0 0 0 0 0 0 0 0 0 0 0 0 0 0 0 0 0 0 0 0 0 0 0 0 0 0 0 0 0 0 0
0 0 0 0 0 0 0 0 0 0 0 0 0 0 0 0 0 0 0 0 0 0 0 0 0 0 0 0 0 0 0 0 0 0 0 0 0 0 0 0 0 0 0
Wind_Speed
2 2 1 1 1 1 1 0 0 1 1 1 1 1 1 1 1 1 1 2 2 2 2 2 2 2 2 1 1 2 2 2 2 3 3 4 4 4 4 3 3 3 4
2 2 1 1 1 1 1 1 1 1 1 1 1 2 2 2 1 1 1 1 2 2 3 3 2 3 2 2 2 2 2 2 3 3 4 4 4 5 4 4 4 4 5
2 2 2 2 1 1 1 1 1 1 1 1 1 2 2 2 2 2 2 1 1 2 3 3 3 3 3 3 3 3 3 3 3 4 4 5 5 5 5 5 5 5 5
3 2 2 2 1 1 1 1 1 1 1 1 1 2 2 2 3 3 2 2 1 1 2 3 3 3 4 4 4 4 4 4 4 4 5 5 6 6 6 6 6 6 6
3 3 3 2 2 1 1 1 0 1 1 1 2 2 2 2 3 3 3 3 2 2 1 2 3 4 4 5 5 5 5 5 5 5 6 6 6 7 7 7 7 7 7
3 3 2 2 2 2 1 1 1 1 1 1 1 2 2 3 2 3 3 3 2 3 2 2 2 3 4 6 6 6 6 6 6 6 6 7 7 8 8 8 8 7 7
3 3 2 2 3 3 3 2 1 1 1 1 0 2 2 2 3 2 2 2 3 3 2 2 2 2 2 5 6 7 7 7 7 7 7 7 8 8 8 8 8 8 8
4 3 3 3 3 3 3 3 2 1 1 1 1 0 2 2 2 2 2 3 3 2 2 3 3 3 3 2 4 6 7 7 8 8 8 7 8 8 8 9 8 9 9
4 4 4 4 4 4 4 4 4 3 2 2 2 2 2 3 3 2 2 2 2 2 3 2 3 3 3 3 3 5 7 8 8 8 8 8 8 8 9 9 9 9 9
4 4 5 5 5 4 4 5 4 3 3 3 2 2 2 2 2 2 2 2 2 3 4 3 3 3 3 3 4 6 7 7 9 9 9 9 9 9 9 9 10 9 9
4 5 5 5 5 4 5 5 4 4 4 4 3 2 2 1 2 2 3 2 2 3 3 4 3 3 3 3 3 5 7 8 9 9 9 9 10 10 10 10 10 10 10
4 5 5 5 5 5 5 5 5 6 5 4 4 3 3 3 2 2 3 3 3 3 3 3 3 3 3 3 4 6 7 7 8 9 9 9 9 10 10 10 10 11 10
3 4 5 5 5 5 5 5 5 6 6 6 5 4 4 3 2 2 2 3 3 3 2 2 3 3 3 2 3 6 6 8 8 8 7 7 7 8 9 10 11 11 11
4 4 4 5 5 5 5 5 5 6 5 6 6 5 4 4 3 3 3 2 3 3 3 4 2 3 2 2 3 5 4 7 7 6 6 6 7 7 9 10 11 12 11
4 4 5 5 5 5 5 5 5 6 5 6 6 6 5 4 4 3 3 3 3 4 5 4 2 2 2 2 4 3 3 6 7 6 6 6 7 8 9 10 11 12 12
5 5 5 5 5 5 5 5 5 5 6 6 5 6 6 4 4 4 4 4 4 4 5 3 3 3 3 3 4 3 3 6 7 7 7 7 8 9 10 10 11 12 11
5 5 5 6 6 6 6 5 5 5 6 6 5 6 6 5 4 4 3 3 4 3 5 4 2 2 3 3 3 3 3 3 4 7 8 8 8 9 9 10 11 12 11
5 5 5 6 6 6 6 6 6 6 6 7 6 6 6 4 5 4 4 4 4 4 4 5 3 3 3 3 3 3 3 3 3 6 8 8 9 9 9 10 11 11 10
5 5 5 6 6 6 6 6 6 6 6 6 6 7 6 5 6 4 4 4 4 3 3 3 4 2 2 2 2 3 3 3 4 5 7 8 8 8 9 9 10 9 8
5 6 6 6 6 6 6 6 5 6 5 5 5 6 5 6 6 5 5 5 3 3 2 3 3 2 2 2 2 2 3 3 3 3 5 6 7 8 9 9 8 8 8
6 5 6 6 5 5 5 5 5 5 5 5 4 4 4 5 7 6 5 4 4 3 3 3 3 2 2 2 2 2 3 3 3 2 3 3 3 3 4 6 7 8 8
5 5 5 5 5 5 6 7 5 4 4 4 4 3 4 5 6 7 8 7 6 5 4 4 4 4 4 3 2 2 3 3 3 2 2 4 2 3 3 3 6 8 7
4 4 5 5 5 5 7 6 5 3 3 3 4 3 3 3 3 3 3 5 6 7 7 5 5 5 4 3 3 3 3 3 4 3 2 4 2 3 3 4 8 8 7
4 4 4 4 5 5 6 5 4 3 3 3 3 4 4 3 2 1 1 1 1 2 3 2 3 3 3 2 3 3 3 2 3 2 2 3 3 3 4 3 6 7 7
4 4 4 4 4 4 5 4 2 2 2 2 2 3 3 3 4 2 1 1 1 1 2 1 2 1 2 2 1 0 0 1 3 2 1 1 2 3 3 3 4 6 7
3 3 4 3 4 4 4 2 2 1 2 1 1 2 3 2 3 2 2 2 1 1 0 1 1 2 1 1 1 1 2 1 1 2 1 1 2 2 3 2 2 3 3
Wind_Direction
166 161 166 168 169 158 169 206 201 192 184 185 193 187 192 198 210 237 289 308 298 274 258 253 236 229 222 232 251 264 280 291 300 306 306 300 289 299 282 283 289 295 302
176 173 179 181 190 194 194 205 218 209 216 208 214 214 212 205 203 217 252 289 308 293 271 262 259 239 236 245 250 263 272 271 282 285 294 303 292 295 278 276 279 285 289
181 183 187 197 211 203 194 194 218 197 209 223 236 227 219 219 216 219 231 239 272 292 280 269 269 257 242 244 252 258 263 266 273 285 292 294 295 298 286 278 277 279 284
184 183 192 206 211 190 171 176 197 208 218 225 245 247 235 227 226 223 222 222 226 259 282 281 283 281 262 248 253 259 261 265 270 278 287 292 293 291 297 289 281 279 279
200 188 199 199 187 189 191 203 205 211 223 242 246 256 252 240 231 221 222 221 219 225 244 280 285 287 278 266 260 262 265 267 270 275 282 289 294 295 291 294 287 283 279
211 202 201 195 180 181 198 210 222 240 209 214 276 282 262 254 238 222 224 222 224 225 225 248 268 282 277 270 267 267 267 265 269 276 283 285 288 294 293 299 291 287 285
210 209 218 197 188 192 196 197 215 223 243 157 45 319 294 250 233 233 226 223 230 229 220 221 231 248 271 279 272 267 269 268 271 274 278 284 285 286 287 295 287 288 287
214 214 214 218 205 199 194 187 181 202 241 182 154 259 307 308 275 247 223 223 228 235 238 237 228 235 242 252 272 276 273 271 273 276 278 281 283 284 286 292 286 289 291
218 215 214 216 215 205 205 201 192 190 223 238 202 179 197 241 296 281 250 230 230 234 243 245 238 240 240 241 253 270 275 272 273 276 278 278 280 282 287 296 290 292 294
226 218 216 213 215 215 213 210 202 203 199 225 240 229 227 214 223 281 286 260 246 240 239 247 248 242 241 243 249 260 267 277 276 275 278 281 282 284 288 293 297 294 293
237 227 221 215 216 220 217 212 209 208 208 215 216 220 233 253 229 226 265 280 276 251 241 240 245 245 240 240 249 256 267 276 279 276 276 279 281 283 286 291 294 294 292
245 231 227 220 221 223 222 219 212 211 216 218 223 213 204 202 212 218 244 265 275 275 264 250 240 239 237 238 254 269 276 276 277 275 275 277 280 283 287 290 291 294 290
251 240 232 224 226 228 227 222 216 216 215 217 221 225 220 221 210 216 236 266 278 280 274 263 242 237 243 238 251 273 277 276 278 275 277 278 285 291 295 296 295 292 289
249 246 235 233 234 232 231 221 221 220 218 220 228 226 225 222 210 209 209 225 281 281 266 258 260 236 240 240 257 279 279 278 282 284 282 284 288 291 294 294 295 291 290
260 250 242 237 235 232 230 226 225 223 220 222 226 224 224 222 215 218 211 206 218 262 266 245 248 249 245 246 255 261 265 275 284 283 282 283 287 287 288 289 289 288 287
261 259 253 243 239 235 230 226 230 225 223 227 224 222 227 222 214 213 215 220 225 238 262 263 257 269 261 263 264 271 261 272 277 279 279 284 284 285 286 286 289 287 283
259 258 255 248 242 238 229 226 229 223 225 231 230 227 229 223 216 216 215 217 225 229 256 279 278 273 257 256 276 274 271 265 267 274 280 282 282 282 284 287 290 286 282
258 254 253 252 247 242 233 228 231 227 226 230 232 232 234 228 223 220 219 227 227 227 237 265 276 270 265 252 261 271 279 276 268 272 278 281 280 280 283 285 290 286 282
262 259 253 254 252 244 237 233 228 228 228 230 229 229 230 224 230 227 227 230 229 234 233 247 269 271 279 276 282 283 279 282 279 278 280 278 280 282 282 286 289 288 284
261 260 259 257 252 247 241 238 234 233 230 232 233 232 228 225 228 223 228 228 225 228 227 237 260 268 276 280 270 278 291 285 286 294 287 283 287 286 283 286 290 291 286
264 263 266 262 252 245 241 240 238 238 234 234 235 235 237 242 241 236 237 224 214 218 222 235 250 268 264 264 264 277 285 296 289 273 287 285 288 282 282 286 292 293 287
268 266 265 262 257 256 262 256 257 240 237 236 239 240 243 243 248 249 247 239 228 219 222 227 243 249 259 267 273 271 282 298 291 272 288 286 277 276 284 286 297 299 292
271 272 269 263 259 265 268 261 263 256 233 230 232 232 249 250 252 244 250 249 242 241 235 232 235 242 246 242 240 258 272 282 279 282 291 279 281 277 287 293 301 304 301
277 277 278 273 267 268 271 264 265 252 230 225 220 222 229 234 237 243 227 235 257 261 254 247 230 243 246 226 226 239 259 288 298 295 300 282 300 293 301 298 299 307 315
291 289 284 279 274 273 271 267 279 243 244 237 225 224 224 217 221 221 176 196 282 328 342 297 282 273 267 276 262 118 253 297 306 297 328 298 299 303 301 296 301 314 318
285 292 295 288 279 267 269 270 283 237 245 243 241 226 223 226 223 211 181 173 201 267 349 22 24 22 18 346 275 218 208 245 300 289 303 315 296 322 316 309 320 326 324